Regional Weather Roundup
Issued by NWS State College, PA

Home | Current Version | Previous Version | Text Only | Print | Product List | Glossary On
Versions: 1 2 3 4 5 6 7 8 9 10 11 12 13 14 15 16 17 18 19 20 21 22 23 24 25 26 27 28 29 30 31 32 33 34 35 36 37 38 39 40 41 42 43 44 45 46 47 48 49 50
000
ASUS41 KCTP 020503
RWRCTP

REGIONAL WEATHER ROUNDUP
NATIONAL WEATHER SERVICE STATE COLLEGE PA
100 AM EDT SAT AUG 02 2014

Note: "fair" indicates few or no clouds below 12,000 feet with no
significant weather and/or obstructions to visibility.

* = STATION THAT DOES NOT REPORT PRECIPITATION /E.G. RAIN...SNOW...ETC/
    THUNDER OR FOG.

PAZ002>004-007>009-013>016-020>023-029>032-020600-
WESTERN PENNSYLVANIA

CITY           SKY/WX    TMP DP  RH WIND       PRES   REMARKS
ERIE           TSTM      70  63  78 W16G28    30.14R
MEADVILLE      PTCLDY    68  60  75 CALM      30.14S
FRANKLIN*      PTCLDY    64  57  77 SE5       30.16S
NEW CASTLE     FAIR      63  63 100 CALM      30.13S FOG
BEAVER COUNTY  NOT AVBL
BUTLER*        PTCLDY    64  61  88 E7        30.15S
PITTSBURGH INT PTCLDY    70  63  78 CALM      30.12S
PITTSBURGH     MOCLDY    69  60  73 S6        30.12S
INDIANA*       CLEAR     66  61  82 S3        30.18F
LATROBE        PTCLDY    68  63  83 S3        30.14S
WASHINGTON CO* CLOUDY    64  63  94 CALM      30.13S
$$

PAZ004>006-010>012-017>019-024>028-033>037-041-042-045-046-049>053-020600-
CENTRAL PENNSYLVANIA

CITY           SKY/WX    TMP DP  RH WIND       PRES   REMARKS
BRADFORD       MOCLDY    61  58  90 CALM      30.20S
DUBOIS         PTCLDY    66  60  81 SE6       30.17R
CLEARFIELD     PTCLDY    62  60  93 N3        30.18S
JOHNSTOWN      PTCLDY    62  58  86 S10       30.18F
ALTOONA        PTCLDY    66  60  81 CALM      30.19S
STATE COLLEGE  PTCLDY    65  62  90 N3        30.18S
WILLIAMSPORT   CLOUDY    67  62  84 E3        30.16F
SELINSGROVE    CLOUDY    66  64  93 CALM      30.17F FOG
FT INDIANTOWN  CLOUDY    67  67 100 NE2       30.19R
CAPITAL CITY   CLOUDY    70  64  81 SE5       30.17S
HARRISBURG     CLOUDY    71  64  78 SE6       30.17R
YORK           CLOUDY    69  61  75 SE5       30.17R
$$

PAZ038>040-043-044-047-048-054-055-060>062-067>071-020600-
EASTERN PENNSYLVANIA

CITY           SKY/WX    TMP DP  RH WIND       PRES   REMARKS
SCRANTON       CLOUDY    67  61  81 CALM      30.20S
MOUNT POCONO   CLOUDY    63 N/A N/A CALM      30.24F
ALLENTOWN      CLOUDY    67  63  87 NE5       30.20R
QUAKERTOWN*    CLOUDY    66  66 100 CALM      30.21S
READING        CLOUDY    68  65  90 CALM      30.18S
LANCASTER      CLOUDY    68  66  93 NE3       30.18S FOG
COATESVILLE    CLOUDY    66  66 100 CALM      30.20S FOG
POTTSTOWN      CLOUDY    68  66  93 CALM      30.21R
BLUE BELL      CLOUDY    68  68 100 CALM      30.19R
DOYLESTOWN     CLOUDY    66  66 100 CALM      30.19S
WILLOW GROVE   NOT AVBL
NORTH PHILA    CLOUDY    71  66  84 CALM      30.20S
PHILADELPHIA   LGT RAIN  72  67  84 E3        30.18F
$$



USA.gov is the U.S. government's official web portal to all federal, state and local government web resources and services.